Kinston, NC

12:12 PM EDT on March 26, 2017 (GMT -0400)
Kinston Regional Jetport / Stallings Field

Weather History for KISO - August, 2013

Change the Weather History Date:

Wednesday, August 14, 2013

  Actual Average Record
Temperature  
Mean Temperature 70 °F -  
Max Temperature 75 °F 87 °F 96 °F (1980)
Min Temperature 66 °F 69 °F 56 °F (1979)
Cooling Degree Days 6    
Growing Degree Days 20 (Base 50)    
Moisture  
Dew Point 67 °F    
Average Humidity 85    
Maximum Humidity 97    
Minimum Humidity 61    
Precipitation  
Precipitation 0.06 in - - ()
Sea Level Pressure  
Sea Level Pressure 29.94 in    
Wind  
Wind Speed 5 mph (NNW)    
Max Wind Speed 14 mph    
Max Gust Speed 21 mph    
Visibility 8 miles    
Events Rain    
Averages and records for this station are not official NWS values.
T = Trace of Precipitation, MM = Missing Value Source: NWS Daily Summary

Daily Weather History Graph

Daily Weather History Graph

Search for Another Location

Airport or City:

Trip Planner

Search our weather history database for the weather conditions in past years. The results will help you decide how hot, cold, wet, or windy it might be!

Date:

Astronomy

Aug. 14, 2013 Rise Set
Actual Time 6:29 AM EDT 8:00 PM EDT
Civil Twilight 6:02 AM EDT 8:27 PM EDT
Nautical Twilight 5:29 AM EDT 8:59 PM EDT
Astronomical Twilight 4:55 AM EDT 9:33 PM EDT
Moon 2:07 PM EDT (8/14) No Moon Set
Length of Visible Light 14h 24m
Length of Day
13h 30m
First Quarter, 52% of the Moon is Illuminated
Aug 14
First Quarter
Aug 20
Full
Aug 28
Last Quarter
Sep 5
New
Sep 12
First Quarter

Hourly Weather History & Observations

Time (EDT) Temp. Dew Point Humidity Pressure Visibility Wind Dir Wind Speed Gust Speed Precip Events Conditions
12:15 AM 75.4 °F 73.9 °F 95% 29.85 in 7.0 mi South 4.6 mph - 0.04 in Rain Light Rain
12:35 AM 74.8 °F 73.4 °F 95% 29.83 in 10.0 mi SSW 4.6 mph - 0.06 in Rain Light Rain
12:55 AM 75.0 °F 73.6 °F 95% 29.83 in 10.0 mi SSW 3.5 mph - 0.06 in   Light Drizzle
1:15 AM 74.3 °F 73.0 °F 96% 29.84 in 10.0 mi SW 4.6 mph - N/A   Clear
1:35 AM 74.3 °F 73.2 °F 96% 29.83 in 7.0 mi SSW 4.6 mph - N/A   Clear
1:55 AM 74.3 °F 73.2 °F 96% 29.83 in 7.0 mi SSW 5.8 mph - N/A   Clear
2:15 AM 73.9 °F 72.9 °F 96% 29.82 in 10.0 mi SW 6.9 mph - N/A   Clear
2:35 AM 73.6 °F 72.5 °F 96% 29.82 in 10.0 mi WSW 4.6 mph - N/A   Clear
2:55 AM 73.2 °F 72.0 °F 96% 29.81 in 10.0 mi WSW 4.6 mph - N/A   Clear
3:15 AM 73.0 °F 71.8 °F 96% 29.82 in 10.0 mi SSW 5.8 mph - N/A   Clear
3:35 AM 72.5 °F 71.2 °F 96% 29.82 in 10.0 mi West 3.5 mph - N/A   Clear
3:55 AM 72.5 °F 71.6 °F 97% 29.82 in 10.0 mi Calm Calm - N/A   Clear
4:15 AM 72.5 °F 71.2 °F 96% 29.82 in 10.0 mi WSW 3.5 mph - N/A   Clear
4:35 AM 72.5 °F 71.6 °F 97% 29.83 in 10.0 mi SW 4.6 mph - N/A   Clear
4:55 AM 72.1 °F 71.2 °F 97% 29.83 in 7.0 mi West 3.5 mph - N/A   Clear
5:15 AM 72.5 °F 71.6 °F 97% 29.83 in 7.0 mi Calm Calm - N/A   Clear
5:35 AM 72.5 °F 71.6 °F 97% 29.84 in 7.0 mi WNW 3.5 mph - N/A   Clear
5:55 AM 72.5 °F 71.6 °F 97% 29.84 in 7.0 mi WNW 3.5 mph - N/A   Clear
6:15 AM 72.5 °F 71.6 °F 97% 29.86 in 10.0 mi WNW 3.5 mph - N/A   Clear
6:35 AM 72.5 °F 71.6 °F 97% 29.87 in 7.0 mi Calm Calm - N/A   Clear
6:55 AM 72.5 °F 71.6 °F 97% 29.87 in 7.0 mi NNW 3.5 mph - N/A   Clear
6:56 AM 73.4 °F 71.6 °F 94% 29.87 in 3.0 mi NNW 3.5 mph - N/A   Clear
7:56 AM 73.4 °F 71.6 °F 94% 29.90 in 3.0 mi North 10.4 mph 16.1 mph N/A   Scattered Clouds
8:56 AM 73.4 °F 69.8 °F 88% 29.92 in 3.0 mi North 13.8 mph 20.7 mph N/A   Scattered Clouds
9:56 AM 75.2 °F 64.4 °F 69% 29.96 in 3.0 mi NE 12.7 mph 18.4 mph N/A   Haze
10:56 AM 75.2 °F 60.8 °F 61% 29.98 in 4.0 mi NNE 12.7 mph 20.7 mph N/A   Haze
11:56 AM 73.4 °F 62.6 °F 69% 30.00 in 4.0 mi NNE 10.4 mph - N/A   Haze
12:56 PM 73.4 °F 62.6 °F 69% 29.99 in 7.0 mi North 11.5 mph - N/A   Mostly Cloudy
1:56 PM 71.6 °F 60.8 °F 69% 29.99 in 7.0 mi North 9.2 mph - N/A   Overcast
2:56 PM 71.6 °F 59.0 °F 64% 30.01 in 7.0 mi NNE 8.1 mph - N/A   Overcast
3:56 PM 71.6 °F 59.0 °F 64% 30.01 in 7.0 mi North 5.8 mph - N/A   Overcast
4:56 PM 71.6 °F 59.0 °F 64% 30.01 in 10.0 mi NNE 6.9 mph - N/A   Scattered Clouds
5:56 PM 71.6 °F 59.0 °F 64% 30.01 in 10.0 mi NE 6.9 mph - N/A   Scattered Clouds
6:56 PM 71.6 °F 60.8 °F 69% 30.02 in 10.0 mi NNE 4.6 mph - N/A   Mostly Cloudy
7:56 PM 69.8 °F 59.0 °F 68% 30.03 in 10.0 mi NNE 5.8 mph - N/A   Mostly Cloudy
8:56 PM 68.0 °F 60.8 °F 78% 30.06 in 10.0 mi North 3.5 mph - N/A   Overcast
9:15 PM 68.5 °F 60.8 °F 76% 30.07 in 10.0 mi North 3.5 mph - N/A   Mostly Cloudy
9:35 PM 68.4 °F 60.8 °F 77% 30.07 in 10.0 mi Calm Calm - N/A   Overcast
9:55 PM 68.9 °F 61.0 °F 76% 30.08 in 10.0 mi Calm Calm - N/A   Mostly Cloudy
9:56 PM 68.0 °F 60.8 °F 78% 30.08 in 10.0 mi Calm Calm - N/A   Mostly Cloudy
10:15 PM 68.4 °F 61.9 °F 80% 30.09 in 10.0 mi NNW 3.5 mph - N/A   Mostly Cloudy
10:35 PM 67.6 °F 62.8 °F 84% 30.09 in 10.0 mi North 4.6 mph - N/A   Mostly Cloudy
10:55 PM 67.8 °F 61.9 °F 81% 30.09 in 10.0 mi North 3.5 mph - N/A   Mostly Cloudy
11:15 PM 67.8 °F 60.8 °F 78% 30.07 in 10.0 mi NNE 5.8 mph - N/A   Scattered Clouds
11:35 PM 66.9 °F 60.8 °F 81% 30.08 in 10.0 mi North 6.9 mph - N/A   Clear
11:55 PM 66.6 °F 60.1 °F 80% 30.09 in 10.0 mi North 4.6 mph - N/A   Scattered Clouds